Weather in Petelino

Russia / Tyumen Oblast     56°44′55″N   66°27′54″E
temp.,
°C
wind,
m/s
gust,
m/s
humid.,
%
clouds,
%
prec.,
mm/h
press.,
hPa
HPBL,
m
17 may, mon
mon1723:00+22wsw35365 0.0 101567
02:00+19w334413 0.0 101538
05:00+18wsw34504 0.0 101554
08:00+25w48405 0.0 1015328
11:00+29w610285 0.0 10151586
14:00+31w6920100 0.0 10143775
17:00+23n594585 0.0 1013242
20:00+26wsw614325 0.0 1010371
18 may, tue
tue1823:00+17wsw3477100 0.7 101456
02:00+16wsw487950 0.0 1013221
05:00+15wsw3581100 0.0 1012122
08:00+19wnw356344 0.0 1012450
11:00+21nw355743 0.1 1012502
14:00+23n984796 0.0 10131720
17:00+18nne896074 0.0 10151292
20:00+14nne6107596 0.0 1018907
19 may, wed
wed1923:00+14nne5965100 0.0 10191046
02:00+11nne510690 0.0 1021398
05:00+9n49780 0.0 1022319
08:00+13nne46534 0.0 1024774
11:00+17nne57375 0.0 10241644
14:00+19n57325 0.0 10231921
17:00+19n57325 0.0 10231952
20:00+16nne364846 0.0 1023126
20 may, thu
thu2023:00+12ene345552 0.0 102563
02:00+10e22595 0.0 102514
05:00+9s226212 0.0 102519
08:00+15sw45485 0.0 1025439
11:00+20w573851 0.0 10231333
14:00+24wnw68315 0.0 10212007
17:00+25wnw682967 0.0 10192095
20:00+21w35465 0.0 101959
21 may, fri
fri2123:00+16w38555 0.0 1019108
02:00+15wsw48565 0.0 1019129
05:00+14wsw35620 0.0 102088
08:00+20w34450 0.0 1020317
11:00+26wsw45310 0.0 10201121
14:00+28wsw55260 0.0 10192188
17:00+27wsw67290 0.0 10181379
20:00+22wsw411434 0.0 1019231